Del Bajio, Mexico

2:21 AM CDT on September 21, 2017 (GMT -0500)
De Guanajuato International

Weather History for MMLO - November, 2011

Change the Weather History Date:

Thursday, November 3, 2011

  Actual Average Record
Temperature  
Mean Temperature 66 °F -  
Max Temperature 84 °F 78 °F 84 °F (2005)
Min Temperature 48 °F 48 °F 37 °F (1999)
Cooling Degree Days 1    
Growing Degree Days 16 (Base 50)    
Moisture  
Dew Point 33 °F    
Average Humidity 35    
Maximum Humidity 67    
Minimum Humidity 8    
Precipitation  
Precipitation 0.00 in - - ()
Sea Level Pressure  
Sea Level Pressure 30.14 in    
Wind  
Wind Speed 5 mph ()    
Max Wind Speed 14 mph    
Max Gust Speed -    
Visibility 9.7 miles    
Events      
Averages and records for this station are not official NWS values.
T = Trace of Precipitation, MM = Missing Value Source: Averaged Metar Reports

Daily Weather History Graph

Daily Weather History Graph

Search for Another Location

Airport or City:

Trip Planner

Search our weather history database for the weather conditions in past years. The results will help you decide how hot, cold, wet, or windy it might be!

Date:

Astronomy

Nov. 03, 2011 Rise Set
Actual Time 6:49 AM CST 6:09 PM CST
Civil Twilight 6:26 AM CST 6:32 PM CST
Nautical Twilight 6:00 AM CST 6:58 PM CST
Astronomical Twilight 5:33 AM CST 7:24 PM CST
Moon 1:49 PM CST (11/3) 12:53 AM CST (11/3)
Length of Visible Light 12h 05m
Length of Day
11h 19m
First Quarter, 61% of the Moon is Illuminated
Nov 3
First Quarter
Nov 10
Full
Nov 18
Last Quarter
Nov 25
New
Dec 2
First Quarter

Hourly Weather History & Observations

Time (CST) Temp. Dew Point Humidity Pressure Visibility Wind Dir Wind Speed Gust Speed Precip Events Conditions
12:50 AM 55.4 °F 33.8 °F 44% 30.27 in 8.0 mi NE 9.2 mph - N/A   Clear
1:50 AM 55.4 °F 33.8 °F 44% 30.26 in 8.0 mi NE 8.1 mph - N/A   Clear
2:49 AM 51.8 °F 35.6 °F 54% 29.90 in 8.0 mi SE 6.9 mph - N/A   Clear
3:50 AM 51.8 °F 35.6 °F 54% 30.25 in 8.0 mi NE 8.1 mph - N/A   Clear
4:46 AM 51.8 °F 35.6 °F 54% 30.25 in 8.0 mi Calm Calm - N/A   Clear
5:49 AM 48.2 °F 35.6 °F 62% 30.01 in 8.0 mi Calm Calm - N/A   Clear
6:50 AM 51.8 °F 33.8 °F 50% 30.28 in 10.0 mi Calm Calm - N/A   Clear
7:59 AM 60.8 °F 33.8 °F 36% 30.33 in 10.0 mi Calm Calm - N/A   Clear
8:57 AM 69.8 °F 32.0 °F 25% 29.97 in 10.0 mi Calm Calm - N/A   Clear
9:43 AM 71.6 °F 32.0 °F 23% 30.33 in 10.0 mi SSW 3.5 mph - N/A   Clear
10:41 AM 75.2 °F 32.0 °F 21% 30.33 in 10.0 mi ENE 5.8 mph - N/A   Clear
11:41 AM 78.8 °F 26.6 °F 15% 29.90 in 10.0 mi East 5.8 mph - N/A   Clear
12:40 PM 82.4 °F 24.8 °F 12% 30.27 in 10.0 mi SSW 3.5 mph - N/A   Clear
1:40 PM 84.2 °F 28.4 °F 13% 30.24 in 10.0 mi SW 5.8 mph - N/A   Clear
2:40 PM 84.2 °F 15.8 °F 8% 29.79 in 12.0 mi Calm Calm - N/A   Clear
3:40 PM 84.2 °F 19.4 °F 9% 30.20 in 14.0 mi South 5.8 mph - N/A   Clear
4:47 PM 82.4 °F 21.2 °F 10% 30.19 in 14.0 mi SE 4.6 mph - N/A   Clear
5:40 PM 78.8 °F 26.6 °F 15% 29.86 in 14.0 mi SSE 6.9 mph - N/A   Clear
6:46 PM 66.2 °F 30.2 °F 26% 30.22 in 10.0 mi ENE 5.8 mph - N/A   Clear
7:40 PM 64.4 °F 32.0 °F 30% 30.24 in 8.0 mi NE 12.7 mph - N/A   Clear
8:41 PM 64.4 °F 41.0 °F 42% 29.89 in 8.0 mi NE 13.8 mph - N/A   Clear
9:43 PM 62.6 °F 46.4 °F 55% 30.28 in 8.0 mi NE 11.5 mph - N/A   Clear
10:42 PM 60.8 °F 48.2 °F 63% 30.29 in 8.0 mi ENE 12.7 mph - N/A   Clear
11:50 PM 59.0 °F 48.2 °F 67% 29.90 in 8.0 mi ENE 6.9 mph - N/A   Clear